P/2003 A1 ( LINEAR )

Japanese version
Home page
Updated on November 7, 2004

---------------------------------------------------------------------

* Profile

Discovery Date January 5, 2003
Magnitude 18.4 mag
Discoverer Lincoln Laboratory Near-Earth Asteroid Research project

* Orbital Elements

Epoch 2003 Feb. 10.0 TT = JDT 2452680.5
T 2003 Feb. 1.24045 TT                                  MPC
q   1.9158178            (2000.0)            P               Q
n   0.13895365     Peri.  357.07773     +0.59902089     -0.53781928
a   3.6916689      Node    55.19234     +0.74853267     +0.11299084
e   0.4810429      Incl.   46.26198     +0.28438146     +0.83545406
P   7.09
>From 144 observations 2003 Jan. 5-Apr. 6, mean residual 0".62.

* Finding Charts

* Magnitudes Graph

        m1 = 6 + 5 log d + 30 log r(t - 100)

        * Gray curve is:  m1 = 13.5 + 5 log d + 10.0 log r

---------------------------------------------------------------------

The orbital elements are published on M.P.E.C. 2003-G48.
The charts are made with StellaNavigator Ver.2.0 for Windows (AstroArts / ASCII).
The magnitudes graphs are made with Comet for Windows.

---------------------------------------------------------------------

Copyright(C) Seiichi Yoshida (comet@aerith.net). All rights reserved.